VLG195P LEBL-LEMG

Flight info

Callsign VLG195P
Flight time 1h 31m
Altitude 30000
Route SENIA Z596 CRETA/N0469F310 Z596 NEXAS N975 ADUXO N869 BLN
Aircraft A320/M-SDE3FGHIRWY/LB1

Departure

Time 2026-05-04 22:24
Airport Josep Tarradellas Barcelona-El Prat Airport (LEBL)

Arrival

Time 2026-05-04 23:56
Airport Málaga-Costa del Sol Airport (LEMG)
Time Latitude Longitude Altitude Speed Heading
2026-05-04 22:00 41.29115 2.07846 19 ft 0 kts 155°
2026-05-04 22:12 41.29117 2.07844 19 ft 1 kts 156°
2026-05-04 22:12 41.29134 2.07835 19 ft 3 kts 161°
2026-05-04 22:12 41.29159 2.07823 20 ft 2 kts 155°
2026-05-04 22:12 41.29170 2.07816 21 ft 3 kts 143°
2026-05-04 22:13 41.29182 2.07799 20 ft 3 kts 100°
2026-05-04 22:13 41.29181 2.07777 21 ft 2 kts 66°
2026-05-04 22:13 41.29176 2.07762 21 ft 3 kts 65°
2026-05-04 22:13 41.29173 2.07752 21 ft 0 kts 65°
2026-05-04 22:18 41.29180 2.07772 20 ft 6 kts 65°
2026-05-04 22:18 41.29206 2.07848 19 ft 12 kts 65°
2026-05-04 22:18 41.29247 2.07970 19 ft 17 kts 65°
2026-05-04 22:19 41.29304 2.08135 19 ft 22 kts 65°
2026-05-04 22:19 41.29369 2.08320 21 ft 17 kts 66°
2026-05-04 22:19 41.29306 2.08415 20 ft 16 kts 156°
2026-05-04 22:19 41.29201 2.08447 20 ft 17 kts 198°
2026-05-04 22:20 41.29077 2.08389 19 ft 21 kts 199°
2026-05-04 22:20 41.28929 2.08324 18 ft 24 kts 198°
2026-05-04 22:20 41.28765 2.08247 16 ft 26 kts 198°
2026-05-04 22:20 41.28655 2.08126 17 ft 22 kts 245°
2026-05-04 22:21 41.28588 2.07928 16 ft 24 kts 246°
2026-05-04 22:21 41.28516 2.07715 16 ft 26 kts 245°
2026-05-04 22:21 41.28441 2.07490 16 ft 27 kts 246°
2026-05-04 22:21 41.28347 2.07335 16 ft 17 kts 194°
2026-05-04 22:22 41.28322 2.07343 16 ft 0 kts 162°
2026-05-04 22:22 41.28313 2.07346 17 ft 4 kts 162°
2026-05-04 22:22 41.28272 2.07367 17 ft 9 kts 156°
2026-05-04 22:23 41.28232 2.07432 18 ft 11 kts 91°
2026-05-04 22:23 41.28262 2.07527 20 ft 11 kts 65°
2026-05-04 22:23 41.28266 2.07540 20 ft 5 kts 65°
2026-05-04 22:23 41.28389 2.07891 20 ft 77 kts 65°
2026-05-04 22:24 41.28694 2.08786 21 ft 132 kts 65°
2026-05-04 22:24 41.29140 2.10075 108 ft 167 kts 61°
2026-05-04 22:24 41.29466 2.11528 705 ft 168 kts 92°
2026-05-04 22:24 41.29313 2.13079 1294 ft 171 kts 100°
2026-05-04 22:25 41.29126 2.14729 1596 ft 191 kts 99°
2026-05-04 22:25 41.28931 2.16583 1825 ft 213 kts 99°
2026-05-04 22:25 41.28725 2.18616 2200 ft 227 kts 98°
2026-05-04 22:25 41.28518 2.20710 2941 ft 229 kts 97°
2026-05-04 22:26 41.28316 2.22798 3653 ft 232 kts 97°
2026-05-04 22:26 41.28108 2.24962 4381 ft 234 kts 97°
2026-05-04 22:26 41.27901 2.27122 5104 ft 237 kts 97°
2026-05-04 22:26 41.27694 2.29312 5805 ft 240 kts 98°
2026-05-04 22:27 41.27316 2.31454 6442 ft 246 kts 113°
2026-05-04 22:27 41.26568 2.33617 6734 ft 269 kts 118°
2026-05-04 22:27 41.25712 2.35949 7107 ft 290 kts 118°
2026-05-04 22:27 41.24814 2.38391 7787 ft 297 kts 118°
2026-05-04 22:28 41.23904 2.40873 8551 ft 301 kts 118°
2026-05-04 22:28 41.22982 2.43393 9337 ft 305 kts 119°
2026-05-04 22:28 41.22051 2.45944 10066 ft 310 kts 119°
2026-05-04 22:28 41.21085 2.48588 10381 ft 329 kts 119°
2026-05-04 22:29 41.20046 2.51418 10525 ft 353 kts 119°
2026-05-04 22:29 41.18936 2.54436 10645 ft 374 kts 119°
2026-05-04 22:29 41.17772 2.57611 10954 ft 388 kts 118°
2026-05-04 22:29 41.16553 2.60834 11518 ft 391 kts 124°
2026-05-04 22:30 41.14864 2.63628 12100 ft 388 kts 141°
2026-05-04 22:30 41.12656 2.65637 12700 ft 383 kts 159°
2026-05-04 22:30 41.10142 2.66664 13307 ft 377 kts 176°
2026-05-04 22:30 41.07545 2.66650 13906 ft 372 kts 193°
2026-05-04 22:31 41.05094 2.65641 14457 ft 368 kts 209°
2026-05-04 22:31 41.02988 2.63763 15010 ft 365 kts 224°
2026-05-04 22:31 41.01375 2.61173 15554 ft 366 kts 239°
2026-05-04 22:31 41.00382 2.58071 16094 ft 369 kts 254°
2026-05-04 22:32 41.00072 2.54685 16636 ft 374 kts 265°
2026-05-04 22:32 40.99992 2.51243 17199 ft 376 kts 265°
2026-05-04 22:32 40.99912 2.47819 17744 ft 378 kts 265°
2026-05-04 22:32 40.99829 2.44332 18283 ft 380 kts 265°
2026-05-04 22:33 40.99742 2.40825 18752 ft 383 kts 265°
2026-05-04 22:33 40.99651 2.37293 19238 ft 385 kts 265°
2026-05-04 22:33 40.99559 2.33749 19722 ft 387 kts 265°
2026-05-04 22:33 40.99466 2.30183 20202 ft 389 kts 265°
2026-05-04 22:34 40.99371 2.26594 20680 ft 391 kts 265°
2026-05-04 22:34 40.99273 2.22970 21122 ft 393 kts 265°
2026-05-04 22:34 40.99172 2.19351 21544 ft 395 kts 265°
2026-05-04 22:34 40.99068 2.15708 21952 ft 397 kts 265°
2026-05-04 22:35 40.98964 2.12042 22351 ft 399 kts 265°
2026-05-04 22:35 40.98859 2.08364 22742 ft 401 kts 265°
2026-05-04 22:35 40.98753 2.04665 23129 ft 403 kts 265°
2026-05-04 22:35 40.98649 2.00947 23513 ft 405 kts 265°
2026-05-04 22:36 40.98546 1.97260 23844 ft 407 kts 265°
2026-05-04 22:36 40.98437 1.93504 24157 ft 409 kts 265°
2026-05-04 22:36 40.98326 1.89734 24493 ft 411 kts 265°
2026-05-04 22:36 40.98212 1.85945 24794 ft 413 kts 265°
2026-05-04 22:37 40.98095 1.82146 25108 ft 415 kts 265°
2026-05-04 22:37 40.97976 1.78330 25536 ft 413 kts 265°
2026-05-04 22:37 40.97856 1.74544 26004 ft 411 kts 265°
2026-05-04 22:37 40.97735 1.70768 26476 ft 410 kts 265°
2026-05-04 22:38 40.97616 1.67010 26959 ft 408 kts 265°
2026-05-04 22:38 40.97497 1.63269 27444 ft 406 kts 265°
2026-05-04 22:38 40.97377 1.59540 27935 ft 404 kts 265°
2026-05-04 22:38 40.97256 1.55829 28435 ft 403 kts 265°
2026-05-04 22:39 40.97133 1.52140 28953 ft 401 kts 265°
2026-05-04 22:39 40.97010 1.48470 29509 ft 398 kts 265°
2026-05-04 22:39 40.96888 1.44820 29894 ft 396 kts 265°
2026-05-04 22:40 40.96633 1.37442 29965 ft 409 kts 265°
2026-05-04 22:40 40.96371 1.29864 29967 ft 413 kts 265°
2026-05-04 22:41 40.96107 1.22263 29968 ft 414 kts 265°
2026-05-04 22:41 40.95832 1.14656 29969 ft 414 kts 265°
2026-05-04 22:42 40.95545 1.07083 29969 ft 411 kts 265°
2026-05-04 22:42 40.95260 0.99530 29969 ft 411 kts 265°
2026-05-04 22:43 40.94979 0.92023 29965 ft 411 kts 265°
2026-05-04 22:43 40.94692 0.84467 29971 ft 411 kts 265°
2026-05-04 22:44 40.94392 0.76909 29972 ft 411 kts 265°
2026-05-04 22:44 40.94082 0.69363 30004 ft 410 kts 264°
2026-05-04 22:45 40.93771 0.61834 29999 ft 409 kts 264°
2026-05-04 22:45 40.93307 0.50568 29998 ft 409 kts 264°
2026-05-04 22:46 40.92990 0.43057 29996 ft 408 kts 264°
2026-05-04 22:46 40.92668 0.35561 30011 ft 408 kts 264°
2026-05-04 22:47 40.92340 0.28076 30013 ft 407 kts 264°
2026-05-04 22:47 40.92010 0.20600 30009 ft 407 kts 264°
2026-05-04 22:48 40.91674 0.13130 30011 ft 407 kts 264°
2026-05-04 22:48 40.91332 0.05660 30005 ft 407 kts 264°
2026-05-04 22:49 40.90991 -0.01801 30016 ft 407 kts 264°
2026-05-04 22:49 40.90644 -0.09213 30005 ft 406 kts 264°
2026-05-04 22:50 40.90285 -0.16661 30008 ft 406 kts 264°
2026-05-04 22:50 40.89922 -0.24108 30011 ft 406 kts 264°
2026-05-04 22:51 40.89558 -0.31549 30013 ft 405 kts 264°
2026-05-04 22:51 40.89190 -0.38994 30011 ft 405 kts 264°
2026-05-04 22:52 40.88819 -0.46437 30015 ft 405 kts 264°
2026-05-04 22:52 40.88447 -0.53867 30014 ft 405 kts 264°
2026-05-04 22:53 40.88064 -0.61304 30020 ft 405 kts 264°
2026-05-04 22:53 40.87740 -0.67477 30019 ft 405 kts 263°
2026-05-04 22:54 40.87343 -0.74910 30017 ft 405 kts 263°
2026-05-04 22:54 40.86319 -0.82174 30035 ft 402 kts 250°
2026-05-04 22:55 40.84401 -0.89102 30031 ft 402 kts 250°
2026-05-04 22:55 40.82480 -0.96030 30030 ft 401 kts 250°
2026-05-04 22:56 40.80560 -1.02951 30027 ft 401 kts 250°
2026-05-04 22:56 40.78648 -1.09826 30028 ft 401 kts 250°
2026-05-04 22:57 40.76719 -1.16730 30052 ft 401 kts 249°
2026-05-04 22:57 40.74786 -1.23615 30049 ft 400 kts 249°
2026-05-04 22:58 40.72859 -1.30494 30044 ft 399 kts 249°
2026-05-04 22:58 40.70928 -1.37352 30037 ft 399 kts 249°
2026-05-04 22:59 40.68999 -1.44199 30036 ft 399 kts 249°
2026-05-04 22:59 40.67071 -1.51043 30028 ft 398 kts 249°
2026-05-04 23:00 40.65137 -1.57880 30046 ft 398 kts 249°
2026-05-04 23:00 40.63197 -1.64703 30033 ft 397 kts 249°
2026-05-04 23:01 40.61251 -1.71522 30038 ft 397 kts 249°
2026-05-04 23:01 40.59310 -1.78330 30032 ft 397 kts 249°
2026-05-04 23:02 40.57361 -1.85133 30022 ft 397 kts 249°
2026-05-04 23:02 40.55411 -1.91930 30048 ft 397 kts 249°
2026-05-04 23:03 40.53459 -1.98711 30043 ft 396 kts 249°
2026-05-04 23:03 40.51058 -2.05146 30047 ft 397 kts 236°
2026-05-04 23:04 40.47030 -2.10149 30041 ft 405 kts 219°
2026-05-04 23:04 40.42340 -2.14261 30008 ft 405 kts 219°
2026-05-04 23:05 40.37658 -2.18375 30011 ft 405 kts 219°
2026-05-04 23:05 40.32975 -2.22495 30011 ft 405 kts 219°
2026-05-04 23:06 40.28278 -2.26601 30015 ft 406 kts 219°
2026-05-04 23:06 40.23580 -2.30701 30039 ft 406 kts 219°
2026-05-04 23:07 40.18886 -2.34804 29999 ft 406 kts 219°
2026-05-04 23:07 40.14191 -2.38912 30003 ft 406 kts 219°
2026-05-04 23:08 40.09485 -2.43003 30010 ft 406 kts 219°
2026-05-04 23:08 40.04778 -2.47092 30014 ft 406 kts 219°
2026-05-04 23:09 40.00071 -2.51182 29977 ft 406 kts 219°
2026-05-04 23:09 39.95378 -2.55256 30017 ft 408 kts 219°
2026-05-04 23:10 39.90633 -2.59347 30027 ft 408 kts 219°
2026-05-04 23:10 39.85896 -2.63427 30026 ft 408 kts 219°
2026-05-04 23:11 39.81162 -2.67508 30042 ft 408 kts 220°
2026-05-04 23:11 39.76429 -2.71586 29997 ft 408 kts 220°
2026-05-04 23:12 39.71691 -2.75659 30000 ft 409 kts 220°
2026-05-04 23:12 39.66945 -2.79733 30011 ft 409 kts 220°
2026-05-04 23:13 39.62191 -2.83799 30020 ft 409 kts 220°
2026-05-04 23:13 39.57438 -2.87855 30024 ft 409 kts 220°
2026-05-04 23:14 39.52677 -2.91922 29987 ft 409 kts 220°
2026-05-04 23:14 39.47915 -2.95984 30001 ft 410 kts 220°
2026-05-04 23:15 39.43140 -3.00036 30013 ft 411 kts 220°
2026-05-04 23:15 39.38120 -3.03665 30020 ft 422 kts 209°
2026-05-04 23:16 39.32613 -3.06345 30040 ft 423 kts 209°
2026-05-04 23:16 39.27136 -3.08998 29996 ft 423 kts 209°
2026-05-04 23:17 39.21622 -3.11675 30007 ft 424 kts 209°
2026-05-04 23:17 39.16096 -3.14363 30022 ft 424 kts 209°
2026-05-04 23:18 39.10565 -3.17045 30024 ft 424 kts 209°
2026-05-04 23:18 39.05035 -3.19717 30005 ft 425 kts 208°
2026-05-04 23:19 38.99483 -3.22394 30017 ft 426 kts 208°
2026-05-04 23:19 38.93919 -3.25067 30026 ft 426 kts 208°
2026-05-04 23:20 38.88362 -3.27736 30029 ft 426 kts 208°
2026-05-04 23:20 38.82804 -3.30412 30025 ft 427 kts 208°
2026-05-04 23:21 38.77259 -3.33070 30033 ft 429 kts 208°
2026-05-04 23:21 38.71668 -3.35739 30034 ft 429 kts 208°
2026-05-04 23:22 38.66083 -3.38403 30042 ft 428 kts 208°
2026-05-04 23:22 38.60460 -3.41082 30022 ft 428 kts 208°
2026-05-04 23:23 38.54906 -3.43721 30016 ft 429 kts 208°
2026-05-04 23:23 38.49312 -3.46384 30019 ft 429 kts 208°
2026-05-04 23:24 38.43712 -3.49048 30025 ft 429 kts 208°
2026-05-04 23:24 38.38111 -3.51701 30027 ft 429 kts 207°
2026-05-04 23:25 38.32519 -3.54345 30028 ft 429 kts 207°
2026-05-04 23:25 38.26919 -3.56985 30028 ft 429 kts 207°
2026-05-04 23:26 38.21322 -3.59617 30025 ft 429 kts 207°
2026-05-04 23:26 38.16114 -3.63008 30024 ft 414 kts 223°
2026-05-04 23:27 38.12204 -3.68184 30005 ft 404 kts 239°
2026-05-04 23:27 38.09042 -3.74110 30018 ft 406 kts 239°
2026-05-04 23:28 38.05865 -3.80023 30023 ft 406 kts 239°
2026-05-04 23:28 38.01969 -3.85234 30031 ft 414 kts 223°
2026-05-04 23:29 37.97413 -3.89715 30036 ft 414 kts 223°
2026-05-04 23:29 37.92846 -3.94169 30045 ft 414 kts 223°
2026-05-04 23:30 37.88319 -3.98591 30001 ft 414 kts 223°
2026-05-04 23:30 37.83761 -4.03043 30014 ft 414 kts 223°
2026-05-04 23:31 37.79190 -4.07510 29882 ft 416 kts 223°
2026-05-04 23:31 37.76897 -4.09744 29599 ft 416 kts 223°
2026-05-04 23:31 37.74597 -4.11981 29321 ft 417 kts 222°
2026-05-04 23:32 37.72293 -4.14221 29052 ft 418 kts 222°
2026-05-04 23:32 37.69984 -4.16469 28775 ft 419 kts 222°
2026-05-04 23:32 37.67673 -4.18717 28508 ft 420 kts 222°
2026-05-04 23:32 37.65354 -4.20965 28241 ft 421 kts 222°
2026-05-04 23:33 37.63054 -4.23190 27943 ft 422 kts 222°
2026-05-04 23:33 37.60718 -4.25451 27669 ft 424 kts 222°
2026-05-04 23:33 37.58379 -4.27711 26706 ft 425 kts 222°
2026-05-04 23:33 37.56020 -4.29994 25579 ft 429 kts 222°
2026-05-04 23:34 37.53644 -4.32292 24502 ft 433 kts 221°
2026-05-04 23:34 37.51238 -4.34614 23413 ft 436 kts 221°
2026-05-04 23:34 37.48835 -4.36930 22449 ft 433 kts 221°
2026-05-04 23:34 37.46459 -4.39212 21638 ft 426 kts 221°
2026-05-04 23:35 37.44135 -4.41440 21254 ft 412 kts 221°
2026-05-04 23:35 37.41908 -4.43571 21108 ft 393 kts 221°
2026-05-04 23:35 37.39781 -4.45606 20989 ft 376 kts 221°
2026-05-04 23:35 37.37741 -4.47569 20835 ft 362 kts 221°
2026-05-04 23:36 37.35786 -4.49458 20704 ft 348 kts 221°
2026-05-04 23:36 37.33899 -4.51278 20590 ft 335 kts 221°
2026-05-04 23:36 37.32081 -4.53026 20463 ft 323 kts 221°
2026-05-04 23:36 37.30321 -4.54715 20271 ft 314 kts 221°
2026-05-04 23:37 37.28587 -4.56352 19993 ft 310 kts 218°
2026-05-04 23:37 37.26657 -4.57576 19757 ft 315 kts 204°
2026-05-04 23:37 37.24489 -4.58143 19514 ft 324 kts 190°
2026-05-04 23:37 37.22220 -4.58162 19211 ft 326 kts 186°
2026-05-04 23:38 37.19947 -4.58140 18778 ft 327 kts 186°
2026-05-04 23:38 37.18436 -4.58124 18472 ft 328 kts 186°
2026-05-04 23:38 37.16164 -4.58100 18104 ft 325 kts 186°
2026-05-04 23:38 37.13896 -4.58078 17650 ft 324 kts 186°
2026-05-04 23:39 37.11658 -4.58055 17298 ft 320 kts 186°
2026-05-04 23:39 37.08712 -4.58030 16760 ft 319 kts 186°
2026-05-04 23:39 37.07216 -4.58019 16501 ft 318 kts 186°
2026-05-04 23:39 37.05008 -4.58003 16126 ft 316 kts 186°
2026-05-04 23:40 37.02808 -4.57987 15747 ft 315 kts 186°
2026-05-04 23:40 37.00621 -4.57967 15391 ft 314 kts 186°
2026-05-04 23:40 36.98443 -4.57948 15039 ft 312 kts 186°
2026-05-04 23:40 36.96273 -4.57923 14657 ft 312 kts 184°
2026-05-04 23:41 36.94115 -4.57434 14335 ft 320 kts 167°
2026-05-04 23:41 36.92095 -4.56181 13972 ft 329 kts 150°
2026-05-04 23:41 36.90372 -4.54271 13574 ft 333 kts 140°
2026-05-04 23:41 36.88741 -4.52239 13227 ft 331 kts 140°
2026-05-04 23:42 36.87111 -4.50213 12883 ft 328 kts 140°
2026-05-04 23:42 36.85513 -4.48228 12544 ft 327 kts 140°
2026-05-04 23:42 36.83908 -4.46237 12304 ft 321 kts 140°
2026-05-04 23:42 36.82345 -4.44298 12040 ft 315 kts 140°
2026-05-04 23:43 36.80785 -4.42370 11662 ft 316 kts 140°
2026-05-04 23:43 36.79216 -4.40444 11292 ft 316 kts 140°
2026-05-04 23:43 36.77648 -4.38521 10928 ft 316 kts 140°
2026-05-04 23:43 36.76094 -4.36613 10562 ft 308 kts 140°
2026-05-04 23:44 36.74594 -4.34766 10200 ft 298 kts 140°
2026-05-04 23:44 36.73009 -4.33200 9767 ft 285 kts 156°
2026-05-04 23:44 36.71258 -4.32104 9241 ft 280 kts 159°
2026-05-04 23:44 36.69515 -4.31045 8732 ft 277 kts 159°
2026-05-04 23:45 36.67794 -4.29993 8222 ft 274 kts 158°
2026-05-04 23:45 36.66097 -4.28949 7776 ft 269 kts 158°
2026-05-04 23:45 36.64436 -4.27925 7377 ft 263 kts 158°
2026-05-04 23:45 36.62814 -4.26923 6994 ft 257 kts 155°
2026-05-04 23:46 36.61357 -4.25656 6605 ft 255 kts 140°
2026-05-04 23:46 36.60188 -4.24013 6205 ft 251 kts 132°
2026-05-04 23:46 36.59078 -4.22357 5802 ft 246 kts 133°
2026-05-04 23:46 36.57987 -4.20742 5397 ft 240 kts 133°
2026-05-04 23:47 36.56900 -4.19180 5139 ft 238 kts 134°
2026-05-04 23:47 36.55774 -4.17684 4858 ft 236 kts 136°
2026-05-04 23:47 36.54634 -4.16225 4631 ft 233 kts 139°
2026-05-04 23:47 36.53310 -4.15200 4424 ft 224 kts 166°
2026-05-04 23:48 36.51799 -4.15005 4323 ft 217 kts 193°
2026-05-04 23:48 36.50406 -4.15625 4297 ft 211 kts 217°
2026-05-04 23:48 36.49351 -4.16862 4274 ft 209 kts 233°
2026-05-04 23:48 36.48393 -4.18223 4245 ft 209 kts 235°
2026-05-04 23:49 36.47739 -4.19810 4164 ft 206 kts 259°
2026-05-04 23:49 36.47712 -4.21524 4041 ft 195 kts 284°
2026-05-04 23:49 36.48245 -4.23053 3919 ft 193 kts 307°
2026-05-04 23:49 36.49130 -4.24304 3870 ft 194 kts 312°
2026-05-04 23:50 36.50041 -4.25563 3814 ft 196 kts 311°
2026-05-04 23:50 36.50939 -4.26811 3747 ft 191 kts 311°
2026-05-04 23:50 36.51824 -4.28044 3679 ft 192 kts 312°
2026-05-04 23:50 36.52717 -4.29288 3598 ft 192 kts 312°
2026-05-04 23:51 36.53606 -4.30526 3530 ft 191 kts 312°
2026-05-04 23:51 36.54484 -4.31749 3429 ft 188 kts 312°
2026-05-04 23:51 36.55348 -4.32951 3233 ft 185 kts 313°
2026-05-04 23:51 36.56210 -4.34153 2932 ft 188 kts 314°
2026-05-04 23:52 36.57087 -4.35375 2650 ft 189 kts 314°
2026-05-04 23:52 36.57946 -4.36573 2398 ft 181 kts 313°
2026-05-04 23:52 36.58769 -4.37722 2139 ft 174 kts 313°
2026-05-04 23:52 36.59562 -4.38831 1881 ft 169 kts 313°
2026-05-04 23:53 36.60316 -4.39886 1642 ft 158 kts 313°
2026-05-04 23:53 36.61031 -4.40884 1533 ft 153 kts 313°
2026-05-04 23:53 36.61734 -4.41865 1419 ft 150 kts 312°
2026-05-04 23:53 36.62399 -4.42793 1253 ft 144 kts 312°
2026-05-04 23:54 36.63057 -4.43711 1097 ft 139 kts 311°
2026-05-04 23:54 36.63688 -4.44592 909 ft 134 kts 311°
2026-05-04 23:54 36.64304 -4.45453 737 ft 131 kts 309°
2026-05-04 23:54 36.64903 -4.46289 569 ft 128 kts 307°
2026-05-04 23:55 36.65495 -4.47120 389 ft 131 kts 308°
2026-05-04 23:55 36.66102 -4.47968 217 ft 132 kts 309°
2026-05-04 23:55 36.67152 -4.49438 47 ft 54 kts 311°
2026-05-04 23:56 36.67337 -4.49605 48 ft 30 kts 341°
2026-05-04 23:56 36.67533 -4.49686 42 ft 26 kts 334°
2026-05-04 23:56 36.67649 -4.49837 43 ft 25 kts 311°
2026-05-04 23:56 36.67751 -4.49871 42 ft 16 kts 24°
2026-05-04 23:57 36.67851 -4.49792 42 ft 18 kts 40°
2026-05-04 23:57 36.67952 -4.49683 42 ft 21 kts 42°
2026-05-04 23:57 36.68016 -4.49565 42 ft 13 kts 105°
2026-05-04 23:57 36.67953 -4.49469 42 ft 15 kts 132°
2026-05-04 23:58 36.67891 -4.49433 40 ft 7 kts 225°
2026-05-04 23:58 36.67867 -4.49456 42 ft 1 kts 212°
2026-05-04 23:58 36.67866 -4.49457 42 ft 0 kts 213°